{"data":{"norad_id":47628,"epoch":"2026-09-19T13:25:03.453600Z","epoch_age_seconds":107064,"freshness":"FRESH","line1":"1 47628U 21012J   26262.55906775  .00001096  00000+0  47068-4 0  9999","line2":"2 47628  53.1597 242.7602 0001284  83.9345 276.1803 15.31701560309793","mean_motion":15.3170156,"eccentricity":0.0001284,"inclination_deg":53.1597,"raan_deg":242.7602,"arg_perigee_deg":83.9345,"mean_anomaly_deg":276.1803,"bstar":4.7068e-5,"rev_number":30979,"period_min":94.013092210992,"perigee_km":469.85594974168,"apogee_km":471.61474015986,"semimajor_km":6848.8723449508,"source":"CELESTRAK","updated_at":"2026-09-20T09:00:38.597564Z"}}